<?xml version='1.0' encoding='UTF-8'?>
<gpx xmlns="http://www.topografix.com/GPX/1/1" creator="www.balnam.be" version="1.1" xmlns:xsi="http://www.w3.org/2001/XMLSchema-instance" xsi:schemaLocation="http://www.topografix.com/GPX/1/1 http://www.topografix.com/GPX/1/1/gpx.xsd">
<trk>
<name>ljuvs10</name>
<cmt>v</cmt>
<desc>Villers-Saint-Siméon Chemin n°10 Rue Saint Lambert</desc>
<link href="https://chemins.be/villerssaintsimeon/chemin/10"/><trkseg>
<trkpt lat="50.710734" lon="5.541835"><time>2026-05-02T17:14:33Z</time></trkpt>
<trkpt lat="50.710338" lon="5.540069"><time>2026-05-02T17:24:33Z</time></trkpt>
</trkseg>
</trk>
<trk>
<name>ljuvs13</name>
<cmt>q</cmt>
<desc>Villers-Saint-Siméon Sentier n°13 </desc>
<link href="https://chemins.be/villerssaintsimeon/sentier/13"/><trkseg>
<trkpt lat="50.710913" lon="5.537521"><time>2026-05-02T17:14:33Z</time></trkpt>
<trkpt lat="50.710224" lon="5.537392"><time>2026-05-02T17:24:33Z</time></trkpt>
<trkpt lat="50.706274" lon="5.537864"><time>2026-05-02T17:34:33Z</time></trkpt>
<trkpt lat="50.705254" lon="5.538103"><time>2026-05-02T17:44:33Z</time></trkpt>
</trkseg>
</trk>
<trk>
<name>ljuvs15</name>
<cmt>q</cmt>
<desc>Villers-Saint-Siméon Sentier n°15 </desc>
<link href="https://chemins.be/villerssaintsimeon/sentier/15"/><trkseg>
<trkpt lat="50.724080" lon="5.541728"><time>2026-05-02T17:14:33Z</time></trkpt>
<trkpt lat="50.723953" lon="5.540770"><time>2026-05-02T17:24:33Z</time></trkpt>
</trkseg>
</trk>
<trk>
<name>ljuvs18</name>
<cmt>q</cmt>
<desc>Villers-Saint-Siméon Sentier n°18 </desc>
<link href="https://chemins.be/villerssaintsimeon/sentier/18"/><trkseg>
<trkpt lat="50.706644" lon="5.541792"><time>2026-05-02T17:14:33Z</time></trkpt>
<trkpt lat="50.708496" lon="5.538602"><time>2026-05-02T17:24:33Z</time></trkpt>
<trkpt lat="50.708840" lon="5.537644"><time>2026-05-02T17:34:33Z</time></trkpt>
</trkseg>
</trk>
<trk>
<name>ljuvs19</name>
<cmt>q</cmt>
<desc>Villers-Saint-Siméon Sentier n°19 </desc>
<link href="https://chemins.be/villerssaintsimeon/sentier/19"/><trkseg>
<trkpt lat="50.707208" lon="5.535218"><time>2026-05-02T17:14:33Z</time></trkpt>
<trkpt lat="50.707697" lon="5.535976"><time>2026-05-02T17:24:33Z</time></trkpt>
<trkpt lat="50.707869" lon="5.535632"><time>2026-05-02T17:34:33Z</time></trkpt>
<trkpt lat="50.709065" lon="5.537621"><time>2026-05-02T17:44:33Z</time></trkpt>
</trkseg>
</trk>
<trk>
<name>ljuvs4</name>
<cmt>v</cmt>
<desc>Villers-Saint-Siméon Chemin n°4 Large Ruelle</desc>
<link href="https://chemins.be/villerssaintsimeon/chemin/4"/><trkseg>
<trkpt lat="50.707156" lon="5.544425"><time>2026-05-02T17:14:33Z</time></trkpt>
<trkpt lat="50.706675" lon="5.543352"><time>2026-05-02T17:24:33Z</time></trkpt>
<trkpt lat="50.706589" lon="5.541678"><time>2026-05-02T17:34:33Z</time></trkpt>
<trkpt lat="50.706245" lon="5.539489"><time>2026-05-02T17:44:33Z</time></trkpt>
<trkpt lat="50.706231" lon="5.536264"><time>2026-05-02T17:54:33Z</time></trkpt>
</trkseg>
</trk>
<trk>
<name>ljuvs5</name>
<cmt>d</cmt>
<desc>Villers-Saint-Siméon Chemin n°5 </desc>
<link href="https://chemins.be/villerssaintsimeon/chemin/5"/><trkseg>
<trkpt lat="50.705028" lon="5.547739"><time>2026-05-02T17:14:33Z</time></trkpt>
<trkpt lat="50.699330" lon="5.549238"><time>2026-05-02T17:24:33Z</time></trkpt>
</trkseg>
</trk>
<trk>
<name>ljuvs6</name>
<cmt>d</cmt>
<desc>Villers-Saint-Siméon Chemin n°6 </desc>
<link href="https://chemins.be/villerssaintsimeon/chemin/6"/><trkseg>
<trkpt lat="50.722024" lon="5.541292"><time>2026-05-02T17:14:33Z</time></trkpt>
<trkpt lat="50.723476" lon="5.540875"><time>2026-05-02T17:24:33Z</time></trkpt>
</trkseg></trk>
<trk>
<name>ljuvs6</name>
<cmt>s</cmt>
<desc>Villers-Saint-Siméon Chemin n°6 </desc>
<link href="https://chemins.be/villerssaintsimeon/chemin/6"/><trkseg>
<trkpt lat="50.723476" lon="5.540875"><time>2026-05-02T17:24:33Z</time></trkpt>
<trkpt lat="50.723761" lon="5.540793"><time>2026-05-02T17:34:33Z</time></trkpt>
</trkseg></trk>
<trk>
<name>ljuvs6</name>
<cmt>d</cmt>
<desc>Villers-Saint-Siméon Chemin n°6 </desc>
<link href="https://chemins.be/villerssaintsimeon/chemin/6"/><trkseg>
<trkpt lat="50.723761" lon="5.540793"><time>2026-05-02T17:34:33Z</time></trkpt>
<trkpt lat="50.725040" lon="5.540426"><time>2026-05-02T17:44:33Z</time></trkpt>
</trkseg>
</trk>
<trk>
<name>ljuvs8</name>
<cmt>v</cmt>
<desc>Villers-Saint-Siméon Chemin n°8 Chemin de l'Épine</desc>
<link href="https://chemins.be/villerssaintsimeon/chemin/8"/><trkseg>
<trkpt lat="50.712115" lon="5.544482"><time>2026-05-02T17:14:33Z</time></trkpt>
<trkpt lat="50.715467" lon="5.542944"><time>2026-05-02T17:24:33Z</time></trkpt>
<trkpt lat="50.718229" lon="5.541478"><time>2026-05-02T17:34:33Z</time></trkpt>
<trkpt lat="50.720788" lon="5.541177"><time>2026-05-02T17:44:33Z</time></trkpt>
<trkpt lat="50.722051" lon="5.541435"><time>2026-05-02T17:54:33Z</time></trkpt>
</trkseg>
</trk>
</gpx>